Regional Weather Roundup
Issued by NWS Green Bay, WI

Home | Current Version | Previous Version | Text Only | Print | Product List | Glossary On
Versions: 1 2 3 4 5 6 7 8 9 10 11 12 13 14 15 16 17 18 19 20 21 22 23 24 25 26 27 28 29 30 31 32 33 34 35 36 37 38 39 40 41 42 43 44 45 46 47 48 49 50
000
ASUS43 KGRB 292010
RWRGRB

NORTH-CENTRAL AND NORTHEAST WISCONSIN REGIONAL WEATHER ROUNDUP
NATIONAL WEATHER SERVICE GREEN BAY WI
300 PM CDT SUN MAR 29 2015

WIZ005-009-010>012-018-019-292100-
NORTH CENTRAL WISCONSIN

CITY           SKY/WX    TMP DP  RH WIND       PRES   REMARKS
IRONWOOD       CLOUDY    34  32  93 W16       29.47R VSB 3/4
MANITOWISH WTR LGT SNOW  32  32 100 W8        29.47S
ARBOR VITAE    CLOUDY    37  35  93 W10G18    29.47S
EAGLE RIVER    LGT SNOW  33  30  90 SW12      29.45F
LAND O LAKES   LGT SNOW  33  32  96 SW5       29.45F
RHINELANDER    LGT SNOW  33  31  92 SW13      29.48F FOG
PHILLIPS       RAIN      33  33  97 W7G18     29.52R
ANTIGO         CLOUDY    32  32  99 SW9       29.49F FOG
TOMAHAWK       LGT RAIN  33  32  96 W3        29.50S
MERRILL        LGT RAIN  34  34 100 W9        29.51F
$$

WIZ013-073-292100-
NORTHEAST WISCONSIN

CITY           SKY/WX    TMP DP  RH WIND       PRES   REMARKS
IRON MOUNTAIN  LGT SNOW  33  30  88 S7        29.46F FOG
MARINETTE      CLOUDY    34  30  86 SW13G21   29.54F
OCONTO         CLOUDY    34  33  97 SW14G22   29.56F
$$

WIZ017-030-035>037-045-292100-
CENTRAL WISCONSIN

CITY           SKY/WX    TMP DP  RH WIND       PRES   REMARKS
MEDFORD        RAIN      36  35  96 W16G24    29.53R
WAUSAU         CLOUDY    35  34  96 SW13      29.50F FOG
MOSINEE        RAIN      36  36 100 SW12      29.53F
MARSHFIELD     LGT RAIN  40  37  89 W17G30    29.54F FOG
WISC RAPIDS    LGT RAIN  39  36  89 SW12      29.57F FOG
STEVENS POINT  LGT RAIN  35  34  96 SW9G18    29.55F
WAUPACA        CLOUDY    38  34  85 SW14G23   29.57F FOG
SHAWANO        DRIZZLE   36  33  90 SW10      29.55F
CLINTONVILLE   CLOUDY    34  32  93 SW10G23   29.56F
$$

WIZ038-039-048-051-292100-
FOX VALLEY

CITY           SKY/WX    TMP DP  RH WIND       PRES   REMARKS
NWS GREEN BAY  CLOUDY    36  32  85 SW20G29   29.57
APPLETON       CLOUDY    34  32  93 SW21G28   29.59F
OSHKOSH        CLOUDY    36  31  82 SW24G38   29.59F
FOND DU LAC    CLOUDY    36  30  79 SW26G37   29.63F
$$

WIZ022-050-052-292100-
EAST CENTRAL WISCONSIN

CITY           SKY/WX    TMP DP  RH WIND       PRES   REMARKS
STURGEON BAY   CLOUDY    34  28  80 SW17G28   29.59F
MANITOWOC      CLOUDY    35  33  92 SW20G25   29.63F
SHEBOYGAN      CLOUDY    35  31  85 SW23G33   29.66F
$$

LMZ563-521-522-541>543-292100-
LAKESHORE

STATION/POSITION TIME  TEMP    WIND        PRES    VSBY  WAVE
                       AIR SEA DIR/SP/G                  HT/PER
                 (UTC) (F)     (DEG/KT/KT) (MB)    (MI)  (FT/S)
SHEBOYGAN LKSHOR 2000   36     220/ 27/ 30 1005.0F
KEWAUNEE LKSHORE 2000          200/ 18/ 27 1001.9F
CHAMBERS ISLAND  2000   33     190/ 11/ 19 1001.7F
MENOMINEE LKSHOR 2000          200/ 17     1001.7F
$$



USA.gov is the U.S. government's official web portal to all federal, state and local government web resources and services.